This is the latest recevied weather packets stored in our database for station/object N3LF. If no packets are shown the sender has not sent any weather packets the latest 10 day(s).
| Time | Temp. | Humidity | Pressure | Rain* | Wind** | Luminosity | Snow |
|---|---|---|---|---|---|---|---|
| 1777931514 | 26.67° C | 40% | 1012.1 hPa | 0 mm | - | 328 W/m² | - |
| 1777931209 | 26.67° C | 40% | 1012.1 hPa | 0 mm | - | 332 W/m² | - |
| 1777930906 | 27.22° C | 40% | 1012.1 hPa | 0 mm | - | 350 W/m² | - |
| 1777930603 | 26.67° C | 39% | 1012 hPa | 0 mm | - | 377 W/m² | - |
| 1777930299 | 26.11° C | 44% | 1012 hPa | 0 mm | - | 388 W/m² | - |
| 1777929996 | 26.67° C | 42% | 1012 hPa | 0 mm | - | 84 W/m² | - |
| 1777929693 | 27.78° C | 41% | 1012 hPa | 0 mm | - | 411 W/m² | - |
| 1777929390 | 27.22° C | 40% | 1012.2 hPa | 0 mm | - | 124 W/m² | - |
| 1777929086 | 27.22° C | 40% | 1012.1 hPa | 0 mm | - | 434 W/m² | - |
| 1777928784 | 27.22° C | 41% | 1012.1 hPa | 0 mm | - | 447 W/m² | - |
| 1777928480 | 27.22° C | 39% | 1012.1 hPa | 0 mm | - | 466 W/m² | - |
| 1777928178 | 27.22° C | 40% | 1012.2 hPa | 0 mm | - | 442 W/m² | - |
| 1777927875 | 27.78° C | 39% | 1012.2 hPa | 0 mm | - | 491 W/m² | - |
| 1777927574 | 27.78° C | 42% | 1012.2 hPa | 0 mm | - | 497 W/m² | - |
| 1777927272 | 27.78° C | 39% | 1012.3 hPa | 0 mm | - | 505 W/m² | - |
| 1777926971 | 27.22° C | 39% | 1012.2 hPa | 0 mm | - | 513 W/m² | - |
| 1777926668 | 27.22° C | 39% | 1012.1 hPa | 0 mm | - | 526 W/m² | - |
| 1777926363 | 27.78° C | 41% | 1012.5 hPa | 0 mm | - | 531 W/m² | - |
| 1777926060 | 27.78° C | 38% | 1012.5 hPa | 0 mm | - | 549 W/m² | - |
| 1777925757 | 27.78° C | 40% | 1012.6 hPa | 0 mm | - | 577 W/m² | - |
| 1777925455 | 26.67° C | 43% | 1012.5 hPa | 0 mm | - | 554 W/m² | - |
| 1777925150 | 26.67° C | 41% | 1012.8 hPa | 0 mm | - | 572 W/m² | - |
| 1777924848 | 27.22° C | 41% | 1012.7 hPa | 0 mm | - | 594 W/m² | - |
| 1777924544 | 27.22° C | 44% | 1012.8 hPa | 0 mm | - | 615 W/m² | - |
| 1777924240 | 27.22° C | 39% | 1012.7 hPa | 0 mm | - | 616 W/m² | - |
* Rain latest hour (hover to see other rain measurements)
** Current wind speed in m/s (hover to see current wind gust speed)